Regional Weather Roundup
Issued by NWS Burlington, VT

Home | Current Version | Previous Version | Text Only | Print | Product List | Glossary On
Versions: 1 2 3 4 5 6 7 8 9 10 11 12 13 14 15 16 17 18 19 20 21 22 23 24 25 26 27 28 29 30 31 32 33 34 35 36 37 38 39 40 41 42 43 44 45 46 47 48 49 50
000
ASUS41 KBTV 240930
RWRBTV
VERMONT REGIONAL WEATHER ROUNDUP
NATIONAL WEATHER SERVICE BURLINGTON VT
500 AM EDT THU AUG 24 2017

NOTE: "FAIR" INDICATES FEW OR NO CLOUDS BELOW 12,000 FEET WITH NO
SIGNIFICANT WEATHER AND/OR OBSTRUCTIONS TO VISIBILITY.

* THESE REPORTS ARE NOT UNDER NWS QUALITY CONTROL AND/OR DO NOT
  REPORT WEATHER SUCH AS PRECIPITATION AND FOG.

VTZ001>019-241000-
_____VERMONT_____


CITY           SKY/WX    TMP DP  RH WIND       PRES   REMARKS
BURLINGTON     MOCLDY    57  54  89 CALM      29.86R
MONTPELIER     CLEAR     50  50 100 CALM      29.91R
MORRISVILLE    CLEAR     49  48  97 CALM      29.88R
ST. JOHNSBURY*   N/A     52  52 100 MISG      29.86R
LYNDONVILLE*   FAIR      49  48  97 CALM      29.89R
MIDDLEBURY*    FAIR      56  53  91 CALM      29.88R
RUTLAND*       MOCLDY    54  50  86 SE10      29.89S
SPRINGFIELD    MOCLDY    51  49  92 CALM      29.90R
HIGHGATE*      CLOUDY    53  53  99 CALM      29.86R
NEWPORT*       FAIR      53  51  95 CALM      29.88R
BENNINGTON     PTCLDY    53  50  89 CALM      29.91S
ISLAND POND*     N/A     48 N/A N/A CALM        N/A
GALLUP MILLS*    N/A     45 N/A N/A MISG        N/A
UNION VILLAGE*   N/A     52 N/A N/A MISG        N/A
MT. MANSFIELD*   N/A     48 N/A N/A W20         N/A

_____LAKE CHAMPLAIN_____


CITY           SKY/WX    TMP DP  RH WIND       PRES   REMARKS
BURTON ISLAND*   N/A     63  55  77 W3          N/A
COLCHESTER RF*   N/A     64  57  77 W18         N/A
DIAMOND ISL*     N/A     59  55  88 SE6         N/A

$$

NYZ007-026>031-035-052-083-087-241000-
_____NORTHERN NEW YORK_____


CITY           SKY/WX    TMP DP  RH WIND       PRES   REMARKS
PLATTSBURGH    CLEAR     59  53  80 W5        29.85R
SARANAC LAKE   CLOUDY    52  52 100 SW6       29.90R
MASSENA        CLOUDY    57  56  96 SW6       29.89R
OGDENSBURG*    MOCLDY    56  55  96 SW3       29.90R
POTSDAM*       MOCLDY   N/A N/A N/A SW5       29.90R
STARK FALLS*     N/A     54 N/A N/A SW6         N/A
WATERTOWN      CLEAR     51  50  96 CALM      29.91R
FT DRUM        PTCLDY    54  51  89 W6        29.91R
ALBANY         PTCLDY    58  53  84 NW5       29.91R
GLENS FALLS    CLEAR     53  52  96 CALM      29.90R FOG

$$
NHZ002-005-011-241000-
_____NEW HAMPSHIRE_____


CITY           SKY/WX    TMP DP  RH WIND       PRES   REMARKS
LEBANON        MOCLDY    51  50  96 S5        29.87S
KEENE            N/A    N/A N/A N/A MISG        N/A
MT WASHINGTON  FOG       39  39 100 W29         N/A  VSB 0   WCI  28
PLYMOUTH       FOG       47  46  97 CALM      29.89R VSB 3/4
WHITEFIELD     CLEAR     46  43  89 CALM      29.87R

$$

_____REGIONAL QUEBEC LOCATIONS_____


CITY           SKY/WX    TMP DP  RH WIND       PRES   REMARKS
MONTREAL       PTCLDY    59  54  82 W8        29.84R
QUEBEC CITY    MOCLDY    55  52  88 W10       29.77R
SHERBROOKE     PTCLDY    54  52  94 W3        29.84R

_____REGIONAL ONTARIO LOCATIONS_____


CITY           SKY/WX    TMP DP  RH WIND       PRES   REMARKS
OTTAWA         MOCLDY    55  55 100 W7        29.88R

______KEY______
VSB  - VISIBILITY IN MILES
WCI  - WIND CHILL INDEX
HX   - HEAT INDEX
$$
NNNN




USA.gov is the U.S. government's official web portal to all federal, state and local government web resources and services.